Regional Weather Roundup
Issued by NWS Charleston, SC

Current Version | Previous Version | Graphics & Text | Print | Product List | Glossary On
Versions: 1 2 3 4 5 6 7 8 9 10 11 12 13 14 15 16 17 18 19 20 21 22 23 24 25 26 27 28 29 30 31 32 33 34 35 36 37 38 39 40 41 42 43 44 45 46 47 48 49 50
000 ASUS42 KCHS 310728 RWRCHS REGIONAL WEATHER ROUNDUP NATIONAL WEATHER SERVICE CHARLESTON SC 300 AM EDT WED AUG 31 2016 NOTE: "FAIR" INDICATES FEW OR NO CLOUDS BELOW 12,000 FEET WITH NO SIGNIFICANT WEATHER AND/OR OBSTRUCTIONS TO VISIBILITY. NOT ALL STATIONS ARE QUALITY CONTROLLED. USE DATA WITH CAUTION... ESPECIALLY DEWPOINT OBSERVATIONS. SCZ027-030-031-034>040-042>050-310800- ...SOUTHEAST SOUTH CAROLINA... CITY SKY/WX TMP DP RH WIND PRES REMARKS N CHARLESTON MOCLDY 75 72 90 CALM 29.99S WATERFRONT PRK N/A 82 78 88 CALM 29.96F HX 91 MOUNT PLEASANT FAIR 75 75 100 CALM 29.99S JOHNS ISLAND FAIR 75 75 100 CALM 29.98S PINOPOLIS N/A 79 73 83 CALM 29.93S MONCKS CORNER PTSUNNY 72 70 94 CALM 29.99F SUMMERVILLE FAIR 72 72 100 CALM 30.00F BEAUFORT MCAS CLOUDY 77 74 90 NE3 29.98S BEAUFORT ARPT PTSUNNY 79 73 83 SE6 29.97S HILTON HEAD IS CLEAR 81 73 78 VRB7G14 29.96F WALTERBORO MOSUNNY 73 73 100 CALM 30.00F ALLENDALE FAIR 73 72 94 CALM 29.99S ...SOUTHERN MIDLANDS AND PEE DEE... CITY SKY/WX TMP DP RH WIND PRES REMARKS GEORGETOWN FAIR 73 72 94 CALM 30.01S KINGSTREE FAIR 68 64 88 CALM 30.01S ORANGEBURG PTCLDY 71 70 96 CALM 30.01F BARNWELL NOT AVBL AIKEN FAIR 70 68 94 CALM 30.05S MANNING PTSUNNY 70 68 94 CALM 30.01S COLUMBIA CLOUDY 74 69 85 CALM 30.01S SUMTER CLOUDY 74 67 76 E2 29.99S FLORENCE CLOUDY 76 68 76 CALM 30.01F MYRTLE BEACH CLOUDY 79 68 69 NW3 30.02F N MYRTLE BEACH CLOUDY 77 76 96 CALM 30.00S $$ GAZ063-065-086>088-099>101-113>116-118-119-134>141-150-310800- ...SOUTHEAST GEORGIA... CITY SKY/WX TMP DP RH WIND PRES REMARKS SAVANNAH ARPT CLEAR 76 72 87 NE8 29.95F HUNTER AAF LGT RAIN 77 77 100 E10G20 29.92F FORT STEWART MOCLDY 74 72 93 N6 29.91F STATESBORO CLEAR 74 74 97 NE3 29.97F SYLVANIA NOT AVBL CLAXTON FAIR 74 74 100 CALM 29.95F ...CSRA...CENTRAL AND FAR SOUTHEAST GEORGIA... CITY SKY/WX TMP DP RH WIND PRES REMARKS THOMSON CLEAR 71 71 100 CALM 30.06S AUGUSTA-BUSH FOG 71 71 100 CALM 30.00R VSB 1/4 AUGUSTA-DANIEL CLEAR 77 71 82 E3 30.02S SWAINSBORO FAIR 73 72 94 NE5 29.99F VIDALIA CLEAR 75 75 100 NE5 29.96F EASTMAN N/A 72 72 100 CALM 29.99F FOG HAZLEHURST FAIR 76 76 100 CALM 29.94F ALMA MOCLDY 74 72 93 N3 29.93F WAYCROSS N/A 77 76 99 NE3 29.92S JESUP FAIR 77 77 100 NE6 29.92F BAXLEY CLOUDY 75 75 100 NE3 29.93F BRUNSWICK PTCLDY 77 77 100 NE3 29.90F SAINT SIMONS MOCLDY 78 75 90 E8 29.89F $$ SCZ027-028-034-036>038-045-046-048>050-GAZ119-141-310800- ...LAKE AND SUPPLEMENTAL COASTAL OBSERVATIONS... STATION/POSITION TIME TEMP WIND PRES WAVE SWELL AIR SEA DIR/SP/G HT/PER HT/PER/DIR (UTC) (F) (DEG/KT/KT) (MB) (FT/S) (FT/S/D) WINYAH BAY 0645 76 320/ 3 1015.0S LAKE MURRAY 0600 81 180/ 5/ 6 1015.9S ACE BASIN NERRS 0600 78 CALM 1015.0 FORT PULASKI 0700 79 84 110/ 12/ 18 1014.5F SAPELO ISLAND 0600 77 80/ 5 1013.0F $$ ANZ835-935-AMZ111-154-330-350-352-354-370-450-454-472-310800- ...C-MAN AND BUOY OBSERVATIONS... STATION/POSITION TIME TEMP WIND PRES WAVE SWELL AIR SEA DIR/SP/G HT/PER HT/PER/DIR (UTC) (F) (DEG/KT/KT) (MB) (FT/S) (FT/S/D) BUOY 41004 0650 83 84 170/ 10/ 12 1014.7F 4/11 3/100/11 BUOY 41008 0650 80 85 130/ 21/ 27 1012.2F 6/ 6 2/100/11 FOLLY BEACH CMAN 0700 81 160/ 6/ 7 1015.3F CAPERS NEARSHORE 0708 82 83 80/ 8/ 12 1014.9F FRIPP NEARSHORE 0708 81 85 140/ 16/ 21 1013.7F STATION/POSITION TIME TEMP WIND PRES WAVE SWELL AIR SEA DIR/SP/G HT/PER HT/PER/DIR (UTC) (F) (DEG/KT/KT) (MB) (FT/S) (FT/S/D) 5E ST. MARYS GA 0701 85 N/A 5/11 2/100/11 FRYING PAN BUOY 0700 82 84 330/ 4/ 6 1015.6S BUOY 41025 0650 81 84 350/ 4/ 6 1014.3S 5/10 5/ 90/10 CAPE LOOKOUT NC 0700 79 340/ 6/ 7 1015.0S BUOY 41002 0650 83 83 210/ 12/ 14 1015.8F 4/12 3/ 30/12 BUOY 41010 NOT AVBL ST AUGUSTINE FL 0700 76 82 210/ 7/ 9 1013.2F $$

USA.gov is the U.S. government's official web portal to all federal, state and local government web resources and services.